TimeEDT,TemperatureF,Dew PointF,Humidity,Sea Level PressureIn,VisibilityMPH,Wind Direction,Wind SpeedMPH,Gust SpeedMPH,PrecipitationIn,Events,Conditions,WindDirDegrees,DateUTC
12:53 AM,51.1,48.0,89,30.02,10.0,Calm,Calm,-,N/A,,Clear,0,2013-05-22 04:53:00
1:53 AM,50.0,46.9,89,29.99,10.0,South,4.6,-,N/A,,Clear,190,2013-05-22 05:53:00
2:53 AM,50.0,48.0,93,29.98,10.0,South,3.5,-,N/A,,Clear,170,2013-05-22 06:53:00
3:53 AM,48.9,48.0,97,30.01,10.0,Calm,Calm,-,N/A,,Overcast,0,2013-05-22 07:53:00
4:05 AM,48.2,46.4,93,30.00,10.0,Calm,Calm,-,N/A,,Mostly Cloudy,0,2013-05-22 08:05:00
4:53 AM,48.9,46.9,93,30.02,10.0,Calm,Calm,-,N/A,,Overcast,0,2013-05-22 08:53:00
5:19 AM,48.2,46.4,93,30.01,8.0,SSE,3.5,-,0.00,Rain,Light Rain,150,2013-05-22 09:19:00
5:53 AM,48.9,46.9,93,30.03,7.0,Calm,Calm,-,0.02,Rain,Light Rain,0,2013-05-22 09:53:00
6:00 AM,48.2,46.4,93,30.02,7.0,SSE,3.5,-,0.00,Rain,Light Rain,150,2013-05-22 10:00:00
6:28 AM,48.2,46.4,93,30.01,7.0,ESE,4.6,-,0.02,Rain,Light Rain,120,2013-05-22 10:28:00
6:53 AM,48.9,46.9,93,30.01,9.0,ESE,4.6,-,0.03,Rain,Light Rain,110,2013-05-22 10:53:00
7:11 AM,48.2,46.4,93,30.00,10.0,ESE,8.1,-,0.00,,Overcast,120,2013-05-22 11:11:00
7:53 AM,48.9,46.9,93,30.03,9.0,ESE,5.8,-,0.01,Rain,Light Rain,110,2013-05-22 11:53:00
8:27 AM,50.0,48.2,94,30.01,9.0,SE,4.6,-,0.01,Rain,Light Rain,130,2013-05-22 12:27:00
8:53 AM,50.0,48.0,93,30.04,10.0,Calm,Calm,-,0.01,Rain,Light Rain,0,2013-05-22 12:53:00
9:53 AM,51.1,48.9,92,30.03,7.0,ESE,5.8,-,0.01,Rain,Light Rain,120,2013-05-22 13:53:00
10:30 AM,51.8,48.2,88,30.02,10.0,ESE,6.9,-,0.00,,Overcast,120,2013-05-22 14:30:00
10:46 AM,51.8,48.2,88,30.01,5.0,East,5.8,-,0.00,,Overcast,100,2013-05-22 14:46:00
10:53 AM,52.0,50.0,93,30.03,4.0,ESE,5.8,-,0.00,,Overcast,110,2013-05-22 14:53:00
11:04 AM,51.8,48.2,88,30.01,3.0,SE,6.9,-,0.00,Rain,Light Rain,130,2013-05-22 15:04:00
11:19 AM,51.8,50.0,94,30.01,2.0,Variable,5.8,-,0.00,Rain,Light Rain,0,2013-05-22 15:19:00
11:53 AM,52.0,50.0,93,30.02,3.0,SE,4.6,-,0.01,,Overcast,130,2013-05-22 15:53:00
12:14 PM,51.8,50.0,94,30.01,2.5,ESE,8.1,-,0.00,Rain,Light Rain,110,2013-05-22 16:14:00
12:20 PM,51.8,50.0,94,30.00,1.8,Variable,6.9,-,0.01,Rain,Light Rain,0,2013-05-22 16:20:00
12:31 PM,53.6,50.0,88,30.00,2.5,SSE,8.1,-,0.01,Rain,Light Rain,150,2013-05-22 16:31:00
12:43 PM,53.6,51.8,94,30.00,3.0,Variable,5.8,-,0.01,,Overcast,0,2013-05-22 16:43:00
12:53 PM,53.1,50.0,89,30.01,2.5,SE,9.2,-,0.01,Rain,Light Rain,140,2013-05-22 16:53:00
1:10 PM,53.6,51.8,94,29.99,2.5,Variable,4.6,-,0.00,Rain,Light Rain,0,2013-05-22 17:10:00
1:15 PM,53.6,51.8,94,29.99,4.0,SE,8.1,-,0.00,,Overcast,140,2013-05-22 17:15:00
1:28 PM,53.6,51.8,94,29.99,4.0,Variable,5.8,-,0.01,,Overcast,0,2013-05-22 17:28:00
1:36 PM,53.6,51.8,94,29.99,10.0,ESE,8.1,-,0.01,,Overcast,120,2013-05-22 17:36:00
1:53 PM,53.1,50.0,89,29.99,9.0,SE,4.6,-,0.01,,Overcast,130,2013-05-22 17:53:00
2:51 PM,53.6,50.0,88,29.98,10.0,Variable,6.9,-,N/A,,Overcast,0,2013-05-22 18:51:00
2:53 PM,54.0,50.0,86,29.99,10.0,SE,5.8,-,N/A,,Overcast,130,2013-05-22 18:53:00
3:53 PM,54.0,50.0,86,29.98,9.0,Variable,3.5,-,N/A,,Overcast,0,2013-05-22 19:53:00
4:53 PM,53.1,50.0,89,29.97,7.0,SSE,5.8,-,N/A,,Overcast,160,2013-05-22 20:53:00
5:19 PM,53.6,50.0,88,29.96,9.0,Variable,5.8,-,N/A,,Overcast,0,2013-05-22 21:19:00
5:42 PM,53.6,51.8,94,29.96,2.0,Variable,5.8,-,N/A,,Overcast,0,2013-05-22 21:42:00
5:53 PM,53.1,51.1,93,29.97,2.0,SSE,6.9,-,N/A,,Overcast,160,2013-05-22 21:53:00
6:05 PM,53.6,51.8,94,29.96,2.5,SSE,6.9,-,N/A,,Overcast,150,2013-05-22 22:05:00
6:12 PM,53.6,51.8,94,29.96,2.5,SSE,6.9,-,N/A,,Overcast,160,2013-05-22 22:12:00
6:30 PM,51.8,51.8,100,29.96,3.0,SSE,5.8,-,N/A,,Overcast,160,2013-05-22 22:30:00
6:38 PM,51.8,51.8,100,29.96,2.5,Variable,5.8,-,N/A,,Overcast,0,2013-05-22 22:38:00
6:53 PM,52.0,51.1,97,29.98,1.8,Variable,5.8,-,0.00,Rain,Light Rain,0,2013-05-22 22:53:00
6:56 PM,51.8,51.8,100,29.96,2.0,SSE,6.9,-,0.00,Rain,Light Rain,150,2013-05-22 22:56:00
6:59 PM,51.8,51.8,100,29.97,3.0,SSE,6.9,-,0.00,,Overcast,160,2013-05-22 22:59:00
7:14 PM,53.6,51.8,94,29.97,9.0,SSE,6.9,-,0.00,,Overcast,160,2013-05-22 23:14:00
7:30 PM,51.8,51.8,100,29.98,2.5,South,4.6,-,0.00,,Overcast,190,2013-05-22 23:30:00
7:43 PM,51.8,51.8,100,29.98,2.0,South,9.2,-,0.01,Rain,Light Rain,180,2013-05-22 23:43:00
7:53 PM,52.0,50.0,93,29.99,4.0,South,5.8,-,0.01,,Overcast,180,2013-05-22 23:53:00
8:53 PM,51.1,48.9,92,29.99,10.0,South,4.6,-,0.00,,Overcast,180,2013-05-23 00:53:00
9:53 PM,50.0,48.0,93,29.98,5.0,SSE,8.1,-,N/A,,Overcast,160,2013-05-23 01:53:00
10:53 PM,48.9,46.9,93,29.98,8.0,South,5.8,-,N/A,,Overcast,180,2013-05-23 02:53:00
11:53 PM,48.9,46.9,93,29.96,7.0,Variable,5.8,-,N/A,,Overcast,0,2013-05-23 03:53:00